Regional Weather Roundup
Issued by NWS

Home | Current Version | Previous Version | Text Only | Print | Product List | Glossary On
Versions: 1 2 3 4 5 6 7 8 9 10 11 12 13 14 15 16 17 18 19 20 21 22 23 24 25 26 27 28 29 30 31 32 33 34 35 36 37 38 39 40 41 42 43 44 45 46 47 48 49 50
000
ASUS43 KBIS 100210
RWRND

NORTH DAKOTA REGIONAL WEATHER ROUNDUP
NATIONAL WEATHER SERVICE BISMARCK ND
800 PM CST TUE FEB 09 2016

NOTE: "FAIR" INDICATES FEW OR NO CLOUDS BELOW 12,000 FEET WITH NO
SIGNIFICANT WEATHER AND/OR OBSTRUCTIONS TO VISIBILITY.


NDZ001>003-009>011-017-100300-
NORTHWEST NORTH DAKOTA

CITY           SKY/WX    TMP DP  RH WIND       PRES   REMARKS
WILLISTON      PTCLDY    31  23  72 CALM      30.04F
MINOT          FLURRIES  24  15  68 E14       30.10F WCI  12
MINOT AFB      MOCLDY    22  18  84 SE15      30.10S WCI   8
$$

NDZ018>021-031>035-040>046-100300-
SOUTHWEST NORTH DAKOTA

CITY           SKY/WX    TMP DP  RH WIND       PRES   REMARKS
BISMARCK       CLOUDY    35  22  58 CALM      30.09F
DICKINSON      CLOUDY    27  20  75 E8        30.02F WCI  19
GARRISON         N/A     32  21  64 CALM      30.07F
HETTINGER ARPT CLOUDY    31  19  61 E3        30.06F
$$

NDZ004>008-012>016-024-026-027-054-100300-
NORTHEAST NORTH DAKOTA

CITY           SKY/WX    TMP DP  RH WIND       PRES   REMARKS
GRAND FORKS    CLOUDY     5  -1  76 N7        30.27S WCI  -7
GRND FRKS AFB  CLOUDY     4  -1  77 NE7       30.26S WCI  -8
DEVILS LAKE    CLOUDY    11   5  77 E10       30.19F WCI  -3
$$

NDZ022-023-025-028>030-036>039-047>053-100300-
SOUTHEAST NORTH DAKOTA

CITY           SKY/WX    TMP DP  RH WIND       PRES   REMARKS
FARGO          CLOUDY    11   3  70 NE6       30.23F WCI   1
JAMESTOWN      CLOUDY    15   8  73 E8        30.14F WCI   4
$$





USA.gov is the U.S. government's official web portal to all federal, state and local government web resources and services.